CAPE MAY HARBOR AT CAPE MAY NJ US USGS current weather conditions

sailwx.info

Wind from 150 at 7 knots gusting 13

Air temperature 24.0° C
Dewpoint 22.3° C

Last reported at 2020-Aug-11 00:48 UTC.
Time now 2020-Aug-11 01:49 UTC

Location: N 38°57' W 074°53'.
View on Google Maps.

See reports from other nearby stations

  
Tides and Currents Weather Stations Pressure Air Temp Water Temp Dewpoint Dewpoint Depression Visibility Wind Speed Wind Dir Waves Ship Positions
date/time (UTC)wind fromknots sea level pressurealtimeterstation pressurevisibilityair tempwater tempwave heightnotes
2020-Aug-11 00:48 150 7 gusting 13 24.0
2020-Aug-11 00:42 152 8 gusting 14 24.0
2020-Aug-11 00:36 156 8 gusting 15 24.0
2020-Aug-11 00:30 153 8 gusting 15 24.1
2020-Aug-11 00:24 156 9 gusting 14 24.1
2020-Aug-11 00:18 153 8 gusting 13 24.1
2020-Aug-11 00:12 151 8 gusting 13 24.0
2020-Aug-11 00:06 151 8 gusting 13 24.0
2020-Aug-11 00:00 150 8 gusting 13 24.0
2020-Aug-10 23:54 152 7 gusting 13 23.9
2020-Aug-10 23:48 150 8 gusting 12 23.9
2020-Aug-10 23:42 148 7 gusting 12 23.9
2020-Aug-10 23:36 148 7 gusting 14 24.0
2020-Aug-10 23:30 147 9 gusting 14 24.1
2020-Aug-10 23:24 147 7 gusting 14 24.1
2020-Aug-10 23:18 148 8 gusting 15 24.1
2020-Aug-10 23:12 149 8 gusting 14 24.1
2020-Aug-10 23:06 148 8 gusting 14 24.2
2020-Aug-10 23:00 146 8 gusting 13 24.2
2020-Aug-10 22:54 150 8 gusting 13 24.3
2020-Aug-10 22:48 150 7 gusting 12 24.4
2020-Aug-10 22:42 151 7 gusting 11 24.4
2020-Aug-10 22:36 149 7 gusting 13 24.5
2020-Aug-10 22:30 149 7 gusting 12 24.5
2020-Aug-10 22:24 152 8 gusting 13 24.6
2020-Aug-10 22:18 150 7 gusting 13 24.7
2020-Aug-10 22:12 150 8 gusting 13 24.7
2020-Aug-10 22:06 155 7 gusting 13 24.8
2020-Aug-10 22:00 150 8 gusting 14 24.7
2020-Aug-10 21:54 151 8 gusting 15 24.6
2020-Aug-10 21:48 151 8 gusting 15 24.8
2020-Aug-10 21:42 148 6 gusting 11 24.8
2020-Aug-10 21:36 148 8 gusting 13 24.6
2020-Aug-10 21:30 143 7 gusting 13 25.0
2020-Aug-10 21:24 142 7 gusting 13 25.0
2020-Aug-10 21:18 147 8 gusting 14 24.8
2020-Aug-10 21:12 147 8 gusting 14 24.9
2020-Aug-10 21:06 145 7 gusting 12 25.0
2020-Aug-10 21:00 147 8 gusting 14 24.9
2020-Aug-10 20:54 146 9 gusting 14 24.8
2020-Aug-10 20:48 145 8 gusting 15 24.8
2020-Aug-10 20:42 149 8 gusting 13 24.9
2020-Aug-10 20:36 147 8 gusting 14 24.9
2020-Aug-10 20:30 149 8 gusting 16 24.9
2020-Aug-10 20:24 148 8 gusting 15 24.9
2020-Aug-10 20:18 147 9 gusting 14 25.0
2020-Aug-10 20:12 154 8 gusting 15 24.8
2020-Aug-10 20:06 150 10 gusting 16 24.8
2020-Aug-10 20:00 147 9 gusting 16 24.8
2020-Aug-10 19:54 148 9 gusting 18 24.9
2020-Aug-10 19:48 149 9 gusting 14 24.9
2020-Aug-10 19:42 151 9 gusting 15 24.8
2020-Aug-10 19:36 148 9 gusting 15 24.9
2020-Aug-10 19:30 152 9 gusting 15 24.8
2020-Aug-10 19:24 150 8 gusting 17 24.8
2020-Aug-10 19:18 151 10 gusting 16 24.8
2020-Aug-10 19:12 151 9 gusting 16 24.8
2020-Aug-10 19:06 149 9 gusting 16 24.8
2020-Aug-10 19:00 149 10 gusting 15 24.7
2020-Aug-10 18:54 145 9 gusting 15 24.8
2020-Aug-10 18:48 148 8 gusting 14 24.6
2020-Aug-10 18:42 147 9 gusting 15 24.7
2020-Aug-10 18:36 145 8 gusting 14 24.7
2020-Aug-10 18:30 146 7 gusting 13 25.0
2020-Aug-10 18:24 149 9 gusting 13 24.7
2020-Aug-10 18:18 150 9 gusting 17 25.2
2020-Aug-10 18:12 146 9 gusting 16 25.1
2020-Aug-10 18:06 135 7 gusting 13 25.3
2020-Aug-10 18:00 136 7 gusting 13 25.5
2020-Aug-10 17:54 133 6 gusting 10 25.7
2020-Aug-10 17:48 142 7 gusting 13 25.3
2020-Aug-10 17:42 136 6 gusting 10 25.3
2020-Aug-10 17:36 146 8 gusting 15 25.0
2020-Aug-10 17:30 139 7 gusting 12 25.4
2020-Aug-10 17:24 147 7 gusting 12 25.2
2020-Aug-10 17:18 135 6 gusting 10 25.3
2020-Aug-10 17:12 138 8 gusting 16 24.8
2020-Aug-10 17:06 145 10 gusting 15 25.0
2020-Aug-10 17:00 150 9 gusting 14 25.3
2020-Aug-10 16:54 146 6 gusting 13 25.0
2020-Aug-10 16:48 144 8 gusting 12 24.9
2020-Aug-10 16:42 144 8 gusting 13 25.0
2020-Aug-10 16:36 144 7 gusting 12 25.2
2020-Aug-10 16:30 146 8 gusting 12 24.9
2020-Aug-10 16:24 148 8 gusting 13 25.1
2020-Aug-10 16:18 143 7 gusting 12 25.3
2020-Aug-10 16:12 146 7 gusting 11 25.2
2020-Aug-10 16:06 145 7 gusting 13 25.4
2020-Aug-10 16:00 144 7 gusting 11 25.0
2020-Aug-10 15:54 142 7 gusting 12 25.3
2020-Aug-10 15:48 147 7 gusting 10 25.1
2020-Aug-10 15:42 144 9 gusting 13 24.9
2020-Aug-10 15:36 138 7 gusting 11 24.9
2020-Aug-10 15:30 144 7 gusting 11 25.1
2020-Aug-10 15:24 139 7 gusting 10 24.9
2020-Aug-10 15:18 130 6 gusting 10 25.4
2020-Aug-10 15:12 133 6 gusting 9 25.8
2020-Aug-10 15:06 138 5 gusting 7 25.9
2020-Aug-10 15:00 146 5 gusting 8 25.7
2020-Aug-10 14:54 146 5 gusting 8 25.7
2020-Aug-10 14:48 155 5 gusting 9 25.4
2020-Aug-10 14:42 133 7 gusting 11 25.0
2020-Aug-10 14:36 134 5 gusting 8 25.2
2020-Aug-10 14:30 130 6 gusting 8 25.1
2020-Aug-10 14:24 129 5 gusting 9 25.2
2020-Aug-10 14:18 151 5 gusting 9 25.3
2020-Aug-10 14:12 159 5 gusting 8 25.3
2020-Aug-10 14:06 156 5 gusting 7 25.3
2020-Aug-10 14:00 141 5 gusting 8 24.8
2020-Aug-10 13:54 130 7 gusting 9 24.5
2020-Aug-10 13:48 139 5 gusting 8 25.0
2020-Aug-10 13:42 144 6 gusting 8 25.0
2020-Aug-10 13:36 150 5 gusting 8 24.7
2020-Aug-10 13:30 145 6 gusting 9 24.8
2020-Aug-10 13:24 150 6 gusting 10 24.6
2020-Aug-10 13:18 151 6 gusting 10 24.6
2020-Aug-10 13:12 158 6 gusting 9 24.7
2020-Aug-10 13:06 136 5 gusting 8 24.9
2020-Aug-10 13:00 127 4 gusting 6 25.0
2020-Aug-10 12:54 132 3 gusting 6 25.1
2020-Aug-10 12:48 144 3 gusting 6 24.9
2020-Aug-10 12:42 139 3 gusting 6 25.1
2020-Aug-10 12:36 151 2 gusting 6 24.8
2020-Aug-10 12:30 145 3 gusting 4 24.7
2020-Aug-10 12:24 152 3 gusting 5 24.5
2020-Aug-10 12:18 155 3 gusting 6 24.4
2020-Aug-10 12:12 129 3 gusting 6 24.5
2020-Aug-10 12:06 150 3 gusting 5 24.7
2020-Aug-10 12:00 148 3 gusting 5 24.6
2020-Aug-10 11:54 125 3 gusting 5 24.8
2020-Aug-10 11:48 193 0 gusting 2 25.0
2020-Aug-10 11:42 246 1 gusting 2 24.7
2020-Aug-10 11:36 182 1 gusting 3 24.4
2020-Aug-10 11:30 154 2 gusting 3 24.2
2020-Aug-10 11:24 177 1 gusting 4 24.0
2020-Aug-10 11:18 191 2 gusting 4 23.8
2020-Aug-10 11:12 175 2 gusting 4 23.7
2020-Aug-10 11:06 174 2 gusting 5 23.5
2020-Aug-10 11:00 159 4 gusting 5 23.4
2020-Aug-10 10:54 161 3 gusting 5 23.3
2020-Aug-10 10:48 172 2 gusting 4 23.3
2020-Aug-10 10:42 162 2 gusting 4 23.2
2020-Aug-10 10:36 163 2 gusting 4 23.1
2020-Aug-10 10:24 178 2 gusting 4 23.1
2020-Aug-10 10:18 175 1 gusting 2 23.0
2020-Aug-10 10:12 181 2 gusting 4 23.0
2020-Aug-10 10:06 184 2 gusting 4 23.0
2020-Aug-10 10:00 195 2 gusting 3 23.0
2020-Aug-10 09:54 196 2 gusting 3 23.1
2020-Aug-10 09:48 195 3 gusting 5 23.1
2020-Aug-10 09:42 189 2 gusting 4 23.0
2020-Aug-10 09:36 183 2 gusting 4 23.0
2020-Aug-10 09:30 180 2 gusting 4 23.1
2020-Aug-10 09:24 185 2 gusting 4 23.1
2020-Aug-10 09:12 190 3 gusting 6 23.0
2020-Aug-10 09:06 190 3 gusting 4 23.0
2020-Aug-10 09:00 183 3 gusting 5 23.0
2020-Aug-10 08:54 183 2 gusting 4 23.0
2020-Aug-10 08:48 181 3 gusting 5 23.0
2020-Aug-10 08:42 182 2 gusting 4 23.0
2020-Aug-10 08:36 176 2 gusting 4 23.0
2020-Aug-10 08:30 181 3 gusting 5 23.0
2020-Aug-10 08:18 191 2 gusting 4 23.0
2020-Aug-10 08:12 187 3 gusting 5 22.9
2020-Aug-10 08:06 186 3 gusting 6 22.9
2020-Aug-10 08:00 182 3 gusting 6 22.7
2020-Aug-10 07:54 180 3 gusting 5 22.7
2020-Aug-10 07:48 165 3 gusting 5 22.6
2020-Aug-10 07:42 163 3 gusting 6 22.6
2020-Aug-10 07:36 158 4 gusting 7 22.7
2020-Aug-10 07:30 163 3 gusting 6 22.7
2020-Aug-10 07:24 175 3 gusting 5 22.6
2020-Aug-10 07:18 168 2 gusting 6 22.5
2020-Aug-10 07:12 182 2 gusting 4 22.5
2020-Aug-10 07:06 183 3 gusting 6 22.5
2020-Aug-10 07:00 183 3 gusting 6 22.4
2020-Aug-10 06:54 181 4 gusting 7 22.4
2020-Aug-10 06:48 173 2 gusting 5 22.4
2020-Aug-10 06:42 164 3 gusting 7 22.3
2020-Aug-10 06:36 160 4 gusting 6 22.3
2020-Aug-10 06:30 167 2 gusting 5 22.3
2020-Aug-10 06:24 163 3 gusting 5 22.3
2020-Aug-10 06:18 163 2 gusting 6 22.3
2020-Aug-10 06:12 165 3 gusting 6 22.4
2020-Aug-10 06:06 158 4 gusting 6 22.5
2020-Aug-10 06:00 159 4 gusting 6 22.6
2020-Aug-10 05:54 160 3 gusting 6 22.6
2020-Aug-10 05:48 161 3 gusting 6 22.7
2020-Aug-10 05:42 158 2 gusting 4 22.7
2020-Aug-10 05:36 163 2 gusting 6 22.7
2020-Aug-10 05:24 162 3 gusting 6 22.7
2020-Aug-10 05:18 163 3 gusting 5 22.7
2020-Aug-10 05:12 162 4 gusting 6 22.7
2020-Aug-10 05:06 159 4 gusting 7 22.8
2020-Aug-10 05:00 165 4 gusting 8 22.8
2020-Aug-10 04:54 162 3 gusting 7 22.9
2020-Aug-10 04:48 163 3 gusting 5 22.9
2020-Aug-10 04:42 169 3 gusting 6 22.8
2020-Aug-10 04:36 172 3 gusting 5 22.6
2020-Aug-10 04:30 158 4 gusting 7 22.5
2020-Aug-10 04:24 157 4 gusting 7 22.5
2020-Aug-10 04:18 160 3 gusting 6 22.5
2020-Aug-10 04:12 162 3 gusting 8 22.5
2020-Aug-10 04:06 157 5 gusting 7 22.5
2020-Aug-10 04:00 158 6 gusting 8 22.7
2020-Aug-10 03:54 156 6 gusting 10 22.8
2020-Aug-10 03:48 157 6 gusting 9 22.9
2020-Aug-10 03:42 156 6 gusting 9 22.9
2020-Aug-10 03:36 161 5 gusting 9 23.0
2020-Aug-10 03:30 162 5 gusting 10 23.0
2020-Aug-10 03:24 160 6 gusting 10 23.0
2020-Aug-10 03:18 158 6 gusting 10 23.0
2020-Aug-10 03:12 158 6 gusting 10 23.2
2020-Aug-10 03:06 158 6 gusting 10 23.3
2020-Aug-10 03:00 159 6 gusting 10 23.2
2020-Aug-10 02:54 160 7 gusting 12 23.2
2020-Aug-10 02:48 159 6 gusting 11 23.1
2020-Aug-10 02:42 161 6 gusting 10 23.0
2020-Aug-10 02:36 161 6 gusting 11 23.0
2020-Aug-10 02:30 160 6 gusting 11 23.0
2020-Aug-10 02:24 157 6 gusting 11 23.0
2020-Aug-10 02:18 157 6 gusting 10 23.0
2020-Aug-10 02:12 155 6 gusting 11 23.0
2020-Aug-10 02:06 154 6 gusting 10 23.1
2020-Aug-10 02:00 150 6 gusting 10 23.1
2020-Aug-10 01:54 152 7 gusting 11 23.2
2020-Aug-10 01:48 151 7 gusting 12 23.2
2020-Aug-10 01:42 155 7 gusting 10 23.3
2020-Aug-10 01:36 156 7 gusting 14 23.4
2020-Aug-10 01:30 157 7 gusting 12 23.4
2020-Aug-10 01:24 154 7 gusting 12 23.3
2020-Aug-10 01:18 153 7 gusting 12 23.3
2020-Aug-10 01:12 151 7 gusting 11 23.2
2020-Aug-10 01:06 150 7 gusting 12 23.2
2020-Aug-10 01:00 149 8 gusting 14 23.3
2020-Aug-10 00:54 148 8 gusting 14 23.3
2020-Aug-10 00:48 150 8 gusting 12 23.3
2020-Aug-10 00:42 151 8 gusting 16 23.3
2020-Aug-10 00:36 154 7 gusting 12 23.3
2020-Aug-10 00:30 153 7 gusting 12 23.3
2020-Aug-10 00:24 150 7 gusting 12 23.3
2020-Aug-10 00:18 150 8 gusting 13 23.3
2020-Aug-10 00:12 148 8 gusting 12 23.4
2020-Aug-10 00:06 150 8 gusting 13 23.4
2020-Aug-10 00:00 149 7 gusting 12 23.4
2020-Aug-09 23:54 149 8 gusting 13 23.4
2020-Aug-09 23:48 152 7 gusting 13 23.4
2020-Aug-09 23:42 149 8 gusting 12 23.2
2020-Aug-09 23:36 149 8 gusting 12 23.2
2020-Aug-09 23:30 150 6 gusting 11 23.2
2020-Aug-09 23:24 150 8 gusting 12 23.1
2020-Aug-09 23:18 148 7 gusting 12 23.1
2020-Aug-09 23:12 149 7 gusting 12 23.2
2020-Aug-09 23:06 148 7 gusting 12 23.3
2020-Aug-09 23:00 150 7 gusting 11 23.4
2020-Aug-09 22:54 148 6 gusting 11 23.5
2020-Aug-09 22:48 144 7 gusting 12 23.6
2020-Aug-09 22:42 146 7 gusting 12 23.6
2020-Aug-09 22:36 148 7 gusting 12 23.6
2020-Aug-09 22:30 147 6 gusting 12 23.5
2020-Aug-09 22:24 146 7 gusting 14 23.6
2020-Aug-09 22:18 146 8 gusting 13 23.5
2020-Aug-09 22:12 146 7 gusting 13 23.4
2020-Aug-09 22:06 150 7 gusting 12 23.3
2020-Aug-09 22:00 150 8 gusting 12 23.4
2020-Aug-09 21:54 149 9 gusting 13 23.6
2020-Aug-09 21:48 150 8 gusting 14 23.8
2020-Aug-09 21:42 151 8 gusting 13 23.9
2020-Aug-09 21:36 147 7 gusting 14 24.1
2020-Aug-09 21:30 151 7 gusting 12 24.1
2020-Aug-09 21:24 147 6 gusting 12 24.0
2020-Aug-09 21:18 145 7 gusting 13 24.0
2020-Aug-09 21:12 145 7 gusting 12 24.1
2020-Aug-09 21:06 143 7 gusting 11 24.3
2020-Aug-09 21:00 144 7 gusting 11 24.3
2020-Aug-09 20:54 143 7 gusting 12 24.2
2020-Aug-09 20:48 145 6 gusting 10 24.4
2020-Aug-09 20:42 138 5 gusting 11 24.4
2020-Aug-09 20:36 139 5 gusting 8 24.4
2020-Aug-09 20:30 137 7 gusting 12 24.2
2020-Aug-09 20:24 133 7 gusting 12 24.1
2020-Aug-09 20:18 138 6 gusting 11 24.5
2020-Aug-09 20:12 138 7 gusting 12 24.4
2020-Aug-09 20:06 130 7 gusting 13 24.7
2020-Aug-09 20:00 136 6 gusting 12 24.8
2020-Aug-09 19:54 138 6 gusting 11 25.1
2020-Aug-09 19:48 129 5 gusting 10 25.0
2020-Aug-09 19:42 135 7 gusting 14 25.0
2020-Aug-09 19:36 124 6 gusting 13 25.2
2020-Aug-09 19:30 126 6 gusting 12 25.1
2020-Aug-09 19:24 122 6 gusting 11 24.9
2020-Aug-09 19:18 121 6 gusting 11 24.7
2020-Aug-09 19:12 118 6 gusting 10 24.9
2020-Aug-09 19:06 119 6 gusting 11 24.6
2020-Aug-09 19:00 117 7 gusting 12 24.8
2020-Aug-09 18:54 124 7 gusting 11 24.7
2020-Aug-09 18:48 121 6 gusting 12 25.1
2020-Aug-09 18:42 131 6 gusting 11 25.2
2020-Aug-09 18:36 125 7 gusting 12 24.9
2020-Aug-09 18:30 123 5 gusting 10 25.2
2020-Aug-09 18:24 121 6 gusting 10 25.1
2020-Aug-09 18:18 132 6 gusting 10 25.3
2020-Aug-09 18:12 129 6 gusting 10 25.4
2020-Aug-09 18:06 127 5 gusting 10 25.5
2020-Aug-09 18:00 128 5 gusting 10 25.6
2020-Aug-09 17:54 115 5 gusting 9 25.7
2020-Aug-09 17:48 117 5 gusting 9 25.7
2020-Aug-09 17:42 120 4 gusting 8 25.8
2020-Aug-09 17:36 116 4 gusting 7 25.8
2020-Aug-09 17:30 132 5 gusting 10 25.7
2020-Aug-09 17:24 130 6 gusting 10 25.4
2020-Aug-09 17:18 126 6 gusting 9 25.1
2020-Aug-09 17:12 134 6 gusting 10 25.0
2020-Aug-09 17:06 135 7 gusting 11 24.9
2020-Aug-09 17:00 144 6 gusting 10 25.2
2020-Aug-09 16:54 138 6 gusting 10 25.1
2020-Aug-09 16:48 150 6 gusting 9 25.1
2020-Aug-09 16:42 150 6 gusting 9 25.1
2020-Aug-09 16:36 145 6 gusting 9 25.2
2020-Aug-09 16:30 134 5 gusting 9 25.8
2020-Aug-09 16:24 159 4 gusting 7 25.1
2020-Aug-09 16:18 145 5 gusting 9 24.8
2020-Aug-09 16:12 140 5 gusting 9 24.8
2020-Aug-09 16:06 141 6 gusting 9 24.7
2020-Aug-09 16:00 140 6 gusting 8 24.6
2020-Aug-09 15:54 143 7 gusting 10 24.4
2020-Aug-09 15:48 148 7 gusting 10 24.7
2020-Aug-09 15:42 146 6 gusting 9 24.1
2020-Aug-09 15:36 137 8 gusting 11 23.8
2020-Aug-09 15:30 147 8 gusting 12 24.0
2020-Aug-09 15:24 131 7 gusting 11 23.9
2020-Aug-09 15:18 144 7 gusting 11 23.6
2020-Aug-09 15:12 133 7 gusting 12 24.2
2020-Aug-09 15:06 141 6 gusting 10 24.3
2020-Aug-09 15:00 153 6 gusting 9 23.9
2020-Aug-09 14:54 140 7 gusting 12 23.7
2020-Aug-09 14:48 145 7 gusting 12 24.6
2020-Aug-09 14:42 136 6 gusting 10 24.4
2020-Aug-09 14:36 139 5 gusting 9 24.9
2020-Aug-09 14:30 153 6 gusting 9 24.6
2020-Aug-09 14:24 139 5 gusting 8 24.4
2020-Aug-09 14:18 124 5 gusting 9 24.2
2020-Aug-09 14:12 133 5 gusting 8 24.7
2020-Aug-09 14:06 126 5 gusting 7 25.2
2020-Aug-09 14:00 132 4 gusting 6 25.2
2020-Aug-09 13:54 122 3 gusting 5 25.0
2020-Aug-09 13:48 131 4 gusting 6 25.2
2020-Aug-09 13:42 130 3 gusting 6 25.5
2020-Aug-09 13:36 242 1 gusting 3 26.0
2020-Aug-09 13:30 191 1 gusting 4 25.8
2020-Aug-09 13:24 170 2 gusting 5 25.6
2020-Aug-09 13:18 188 2 gusting 4 25.6
2020-Aug-09 13:12 188 2 gusting 5 25.5
2020-Aug-09 13:06 158 2 gusting 5 25.4
2020-Aug-09 13:00 150 1 gusting 3 24.9
2020-Aug-09 12:54 134 1 gusting 3 24.7
2020-Aug-09 12:48 135 2 gusting 4 25.1
2020-Aug-09 12:42 146 1 gusting 3 25.0
2020-Aug-09 12:36 139 1 gusting 3 24.7
2020-Aug-09 12:30 172 2 gusting 3 24.8
2020-Aug-09 12:24 235 1 gusting 2 24.7
2020-Aug-09 12:18 253 1 gusting 2 24.6
2020-Aug-09 12:12 271 1 gusting 2 24.6
2020-Aug-09 12:06 246 1 gusting 3 24.3
2020-Aug-09 12:00 225 1 gusting 2 24.3
2020-Aug-09 11:54 248 1 gusting 2 24.2
2020-Aug-09 11:48 225 1 gusting 3 23.9
2020-Aug-09 11:42 182 1 gusting 3 24.0
2020-Aug-09 11:36 264 0 gusting 1 23.7
2020-Aug-09 11:30 298 0 gusting 1 23.2
2020-Aug-09 11:24 184 0 gusting 1 22.6
2020-Aug-09 11:18 200 0 gusting 1 22.3
2020-Aug-09 11:12 215 1 gusting 1 22.2
2020-Aug-09 11:06 235 1 gusting 1 22.1
2020-Aug-09 11:00 239 1 gusting 2 22.1
2020-Aug-09 10:54 236 1 gusting 1 22.1
2020-Aug-09 10:48 264 1 gusting 1 22.1
2020-Aug-09 10:42 282 0 gusting 1 22.0
2020-Aug-09 10:36 236 0 gusting 1 21.8
2020-Aug-09 10:30 130 0 gusting 1 21.6
2020-Aug-09 10:24 171 0 gusting 3 21.5
2020-Aug-09 10:18 132 1 gusting 2 21.4
2020-Aug-09 10:12 155 1 gusting 1 21.5
2020-Aug-09 10:06 256 0 gusting 0 21.5
2020-Aug-09 10:00 305 0 gusting 0 21.4
2020-Aug-09 09:54 137 0 gusting 0 21.5
2020-Aug-09 09:48 086 0 gusting 2 21.5
2020-Aug-09 09:42 066 2 gusting 2 21.5
2020-Aug-09 09:36 087 1 gusting 2 21.4
2020-Aug-09 09:30 081 0 gusting 1 21.4
2020-Aug-09 09:24 058 1 gusting 1 21.5
2020-Aug-09 09:18 104 0 gusting 1 21.5
2020-Aug-09 09:12 155 0 gusting 1 21.4
2020-Aug-09 09:06 121 1 gusting 1 21.5
2020-Aug-09 09:00 096 1 gusting 1 21.5
2020-Aug-09 08:54 105 1 gusting 2 21.5
2020-Aug-09 08:48 129 1 gusting 3 21.5
2020-Aug-09 08:42 119 1 gusting 3 21.5
2020-Aug-09 08:36 109 1 gusting 3 21.6
2020-Aug-09 08:30 129 2 gusting 4 21.5
2020-Aug-09 08:24 113 2 gusting 4 21.4
2020-Aug-09 08:18 107 2 gusting 4 21.5
2020-Aug-09 08:12 077 1 gusting 2 21.6
2020-Aug-09 08:06 21.6
2020-Aug-09 08:00 034 0 gusting 0 21.7
2020-Aug-09 07:54 354 0 gusting 1 21.7
2020-Aug-09 07:48 316 1 gusting 2 21.8
2020-Aug-09 07:42 289 1 gusting 3 21.8
2020-Aug-09 07:36 239 1 gusting 2 21.7
2020-Aug-09 07:30 246 1 gusting 1 21.7
2020-Aug-09 07:24 175 0 gusting 1 21.7
2020-Aug-09 07:18 189 0 gusting 1 21.8
2020-Aug-09 07:12 198 0 gusting 1 21.8
2020-Aug-09 07:06 200 1 gusting 2 21.7
2020-Aug-09 07:00 221 1 gusting 2 21.7
2020-Aug-09 06:54 222 1 gusting 2 21.8
2020-Aug-09 06:48 188 1 gusting 3 21.8
2020-Aug-09 06:42 186 2 gusting 4 21.8
2020-Aug-09 06:36 168 1 gusting 3 21.8
2020-Aug-09 06:30 169 1 gusting 4 21.7
2020-Aug-09 06:24 163 3 gusting 5 21.7
2020-Aug-09 06:18 173 1 gusting 3 21.7
2020-Aug-09 06:12 174 2 gusting 3 21.8
2020-Aug-09 06:06 178 1 gusting 3 21.8
2020-Aug-09 06:00 186 1 gusting 3 21.9
2020-Aug-09 05:54 173 1 gusting 3 21.9
2020-Aug-09 05:48 164 2 gusting 3 22.0
2020-Aug-09 05:42 174 1 gusting 3 21.9
2020-Aug-09 05:36 159 1 gusting 2 22.0
2020-Aug-09 05:30 170 1 gusting 2 22.0
2020-Aug-09 05:24 175 1 gusting 2 22.0
2020-Aug-09 05:18 183 1 gusting 2 22.0
2020-Aug-09 05:12 191 1 gusting 3 22.0
2020-Aug-09 05:06 163 1 gusting 2 22.0
2020-Aug-09 05:00 158 2 gusting 3 22.0
2020-Aug-09 04:54 165 2 gusting 3 22.0
2020-Aug-09 04:48 164 2 gusting 4 22.0
2020-Aug-09 04:42 163 2 gusting 4 22.1
2020-Aug-09 04:36 183 2 gusting 3 22.1
2020-Aug-09 04:30 172 1 gusting 2 22.1
2020-Aug-09 04:24 164 1 gusting 2 22.1
2020-Aug-09 04:18 162 1 gusting 2 22.1
2020-Aug-09 04:12 159 1 gusting 3 22.1
2020-Aug-09 04:06 178 1 gusting 2 22.0
2020-Aug-09 04:00 139 0 gusting 1 22.0
2020-Aug-09 03:54 135 1 gusting 2 22.0
2020-Aug-09 03:48 194 1 gusting 3 22.1
2020-Aug-09 03:42 186 1 gusting 3 22.1
2020-Aug-09 03:36 172 1 gusting 2 22.0
2020-Aug-09 03:30 169 2 gusting 3 22.1
2020-Aug-09 03:18 174 2 gusting 3 22.3
2020-Aug-09 03:12 154 1 gusting 2 22.3
2020-Aug-09 03:06 160 1 gusting 2 22.3
2020-Aug-09 03:00 199 1 gusting 2 22.3
2020-Aug-09 02:54 347 0 gusting 1 22.2
2020-Aug-09 02:48 118 0 gusting 1 22.3
2020-Aug-09 02:42 035 1 gusting 2 22.4
2020-Aug-09 02:36 136 0 gusting 1 22.5
2020-Aug-09 02:30 190 1 gusting 3 22.4
2020-Aug-09 02:24 167 1 gusting 2 22.4
2020-Aug-09 02:18 152 2 gusting 4 22.4
2020-Aug-09 02:12 153 2 gusting 2 22.4
2020-Aug-09 02:06 148 2 gusting 3 22.3
2020-Aug-09 02:00 148 1 gusting 2 22.2
2020-Aug-09 01:54 121 1 gusting 3 22.2
2020-Aug-09 01:48 112 1 gusting 2 22.2
2020-Aug-09 01:42 105 1 gusting 2 22.2
2020-Aug-09 01:36 104 1 gusting 3 22.2
2020-Aug-09 01:30 150 2 gusting 3 22.1
2020-Aug-09 01:24 116 1 gusting 3 22.1
2020-Aug-09 01:18 119 2 gusting 4 22.1
2020-Aug-09 01:12 114 2 gusting 4 22.1
2020-Aug-09 01:06 114 2 gusting 4 22.2
2020-Aug-09 01:00 124 3 gusting 5 22.3